ANJALA Weather Reports


time (UTC)temp
C
wind
direction
speed
KPH
gust
KPH
rain 1hr
cm
rain 24hr
cm
rain mn
cm
humidity
%
barometer
mb
20260508140729 14 0.0 0.0 0.00 0.00 0.00 23
20260508134729 13 0.0 0.0 0.00 0.00 0.00 24
20260508132729 13 0.0 0.0 0.00 0.00 0.00 26
20260508130728 14 0.0 0.0 0.00 0.00 0.00 28
20260508124729 13 0.0 0.0 0.00 0.00 0.00 27
20260508122728 14 0.0 0.0 0.00 0.00 0.00 28
20260508120728 13 0.0 0.0 0.00 0.00 0.00 26
20260508114728 14 0.0 0.0 0.00 0.00 0.00 29
20260508112729 13 0.0 0.0 0.00 0.00 0.00 28
20260508110728 13 0.0 0.0 0.00 0.00 0.00 29
20260508104728 13 0.0 0.0 0.00 0.00 0.00 31
20260508100728 12 0.0 0.0 0.00 0.00 0.00 33
20260508094728 12 0.0 0.0 0.00 0.00 0.00 33
20260508092728 11 0.0 0.0 0.00 0.00 0.00 35
20260508090728 11 0.0 0.0 0.00 0.00 0.00 37
20260508084728 11 0.0 0.0 0.00 0.00 0.00 38
20260508082728 10 0.0 0.0 0.00 0.00 0.00 38
20260508080728 10 0.0 0.0 0.00 0.00 0.00 40
20260508074727 10 0.0 0.0 0.00 0.00 0.00 41
20260508072727 9 0.0 0.0 0.00 0.00 0.00 44
20260508070728 8 0.0 0.0 0.00 0.00 0.00 46
20260508064727 8 0.0 0.0 0.00 0.00 0.00 49
20260508061056 7 0.0 0.0 0.00 0.00 0.00 55
20260508060728 7 0.0 0.0 0.00 0.00 0.00 52
20260508054727 7 0.0 0.0 0.00 0.00 0.00 57
20260508052727 7 0.0 0.0 0.00 0.00 0.00 57
20260508050727 7 0.0 0.0 0.00 0.00 0.00 58
20260508044727 6 0.0 0.0 0.00 0.00 0.00 60
20260508042727 6 0.0 0.0 0.00 0.00 0.00 60
20260508040727 5 0.0 0.0 0.00 0.00 0.00 62
20260508032727 3 0.0 0.0 0.00 0.00 0.00 65
20260508024726 2 0.0 0.0 0.00 0.00 0.00 67
20260508022726 1 0.0 0.0 0.00 0.00 0.00 69
20260508020726 1 0.0 0.0 0.00 0.00 0.00 70
20260508014726 1 0.0 0.0 0.00 0.00 0.00 68
20260508012726 2 0.0 0.0 0.00 0.00 0.00 64
20260508010726 3 0.0 0.0 0.00 0.00 0.00 61
20260508004726 3 0.0 0.0 0.00 0.00 0.00 60
20260508002726 3 0.0 0.0 0.00 0.00 0.00 60
20260508000726 3 0.0 0.0 0.00 0.00 0.00 57
20260507234726 3 0.0 0.0 0.00 0.00 0.00 57
20260507232726 3 0.0 0.0 0.00 0.00 0.00 56
20260507230726 3 0.0 0.0 0.00 0.00 0.00 54
20260507224725 3 0.0 0.0 0.00 0.00 0.00 54
20260507222725 3 0.0 0.0 0.00 0.00 0.00 56
20260507220725 3 0.0 0.0 0.00 0.00 0.00 54
20260507214725 3 0.0 0.0 0.00 0.00 0.00 54
20260507212725 4 0.0 0.0 0.00 0.00 0.00 48
20260507210725 5 0.0 0.0 0.00 0.00 0.00 46
20260507202725 5 0.0 0.0 0.00 0.00 0.00 43
20260507200725 5 0.0 0.0 0.00 0.00 0.00 46
20260507192725 5 0.0 0.0 0.00 0.00 0.00 51
20260507190724 6 0.0 0.0 0.00 0.00 0.00 45
20260507184725 7 0.0 0.0 0.00 0.00 0.00 38
20260507181052 10 0.0 0.0 0.00 0.00 0.00 30
20260507180724 8 0.0 0.0 0.00 0.00 0.00 33
20260507174724 10 0.0 0.0 0.00 0.00 0.00 30
20260507172724 11 0.0 0.0 0.00 0.00 0.00 30
20260507170724 12 0.0 0.0 0.00 0.00 0.00 28
20260507164724 12 0.0 0.0 0.00 0.00 0.00 27
20260507162725 12 0.0 0.0 0.00 0.00 0.00 28
20260507150725 13 0.0 0.0 0.00 0.00 0.00 26
20260507142724 13 0.0 0.0 0.00 0.00 0.00 26